Home > Weather > Aylesbury > Past weeks

Flag for United Kingdom Past Weather in Aylesbury, England, United Kingdom — Yesterday and Last 2 Weeks

Now
54 °F

Cool.


Feels Like: 54 °F
Forecast: 58 / 70 °F
Wind: 2 mph from Northwest

Location: High Wicombe Hqstc

Current Time: Jul 28, 2016 at 7:48:59 AM

Latest Report: Jul 28, 2016 at 7:00 AM


Visibility: 19 mi

Pressure: 29.99 "Hg

Humidity: 90%

Dew Point: 51 °F

Location of AylesburyLocation

Past Weather in Aylesbury — Graph

°F

Aylesbury Temperature Yesterday

Maximum temperature yesterday: 73 °F (at 3:00 PM)
Minimum temperature yesterday: 59 °F (at 3:00 AM)
Average temperature yesterday: 64 °F

High & Low Weather Summary for the Past Weeks

 TemperatureHumidityPressure
High87 °F (Jul 19, 3:00 PM)99% (Jul 18, 7:00 AM)30.32 "Hg (Jul 18, 7:00 AM)
Low49 °F (Jul 14, 5:00 AM)35% (Jul 18, 5:00 PM)29.72 "Hg (Jul 20, 8:00 AM)
Average65 °F76%30.10 "Hg
* Reported Jul 13 6:00 AM — Jul 28 6:00 AM, Aylesbury, Weather by CustomWeather, © 2016

Note: Actual official high and low records may vary slightly from our data, if they occured in-between our weather recording intervals... More about our weather records

Advertising

Aylesbury Weather History for the Previous 24 Hours

Scroll right to see more
 ConditionsComfort  
Time TempWeatherWind HumidityBarometerVisibility
6:00 AM
Thu, Jul 28
53 °FCool.1 mph91%29.99 "Hg16 mi
5:00 AM53 °FCool.2 mph89%30.00 "Hg22 mi
4:00 AM56 °FCool.3 mph82%30.00 "Hg31 mi
3:00 AM57 °FCool.3 mph81%30.00 "Hg25 mi
2:00 AM58 °FCool.3 mph80%30.00 "Hg28 mi
1:00 AM59 °FCool.5 mph79%30.00 "Hg28 mi
12:00 AM60 °FCool.5 mph77%30.00 "Hg28 mi
11:00 PM
Wed, Jul 27
62 °FCool.5 mph75%30.00 "Hg31 mi
10:00 PM63 °FMild.5 mph76%29.98 "Hg28 mi
9:00 PM65 °FMild.3 mph73%29.97 "Hg31 mi
8:00 PM67 °FMild.5 mph71%29.96 "Hg12 mi
7:00 PM73 °FMild.5 mph61%29.95 "Hg31 mi
6:00 PM72 °FMild.3 mph62%29.95 "Hg28 mi
5:00 PM71 °FMild.5 mph68%29.95 "Hg28 mi
4:00 PM73 °FMild.7 mph66%29.95 "Hg22 mi
3:00 PM73 °FMild.7 mph64%29.95 "Hg31 mi
2:00 PM68 °FMild.5 mph74%29.96 "Hg22 mi
1:00 PM68 °FMild.6 mph80%29.96 "Hg25 mi
12:00 PM65 °FMild.7 mph84%29.97 "Hg28 mi
11:00 AM64 °FMild.6 mph93%29.97 "Hg14 mi
10:00 AM61 °FCool.7 mph98%29.96 "Hg19 mi
9:00 AM61 °FLots of rain. Cloudy.8 mph97%29.97 "Hg2 mi
8:00 AM60 °FRain showers. Cloudy.8 mph98%29.97 "Hg4 mi
7:00 AM60 °FCool.7 mph98%29.97 "Hg3 mi
Weather by CustomWeather, © 2016

See weather overviewHow to use our weather pages